Year,Month,Day,Hour,Minute,Value (Times are PST for temperature in C)
2012,03,26,00,00,5.20
2012,03,26,00,01,5.20
2012,03,26,00,02,5.20
2012,03,26,00,03,5.20
2012,03,26,00,04,5.10
2012,03,26,00,05,5.10
2012,03,26,00,06,5.00
2012,03,26,00,07,5.00
2012,03,26,00,08,4.90
2012,03,26,00,09,4.90
2012,03,26,00,10,4.90
2012,03,26,00,11,4.80
2012,03,26,00,12,4.80
2012,03,26,00,13,4.80
2012,03,26,00,14,4.80
2012,03,26,00,15,4.70
2012,03,26,00,16,4.70
2012,03,26,00,17,4.70
2012,03,26,00,18,4.70
2012,03,26,00,19,4.70
2012,03,26,00,20,4.70
2012,03,26,00,21,4.70
2012,03,26,00,22,4.70
2012,03,26,00,23,4.70
2012,03,26,00,24,4.70
2012,03,26,00,25,4.70
2012,03,26,00,26,4.60
2012,03,26,00,27,4.60
2012,03,26,00,28,4.60
2012,03,26,00,29,4.60
2012,03,26,00,30,4.60
2012,03,26,00,31,4.50
2012,03,26,00,32,4.50
2012,03,26,00,33,4.40
2012,03,26,00,34,4.40
2012,03,26,00,35,4.40
2012,03,26,00,36,4.40
2012,03,26,00,37,4.30
2012,03,26,00,38,4.30
2012,03,26,00,39,4.30
2012,03,26,00,40,4.30
2012,03,26,00,41,4.30
2012,03,26,00,42,4.30
2012,03,26,00,43,4.30
2012,03,26,00,44,4.30
2012,03,26,00,45,4.30
2012,03,26,00,46,4.30
2012,03,26,00,47,4.30
2012,03,26,00,48,4.20
2012,03,26,00,49,4.20
2012,03,26,00,50,4.20
2012,03,26,00,51,4.20
2012,03,26,00,52,4.20
2012,03,26,00,53,4.20
2012,03,26,00,54,4.10
2012,03,26,00,55,4.10
2012,03,26,00,56,4.10
2012,03,26,00,57,4.10
2012,03,26,00,58,4.10
2012,03,26,00,59,4.00
2012,03,26,01,00,4.00
2012,03,26,01,01,4.00
2012,03,26,01,02,4.00
2012,03,26,01,03,4.00
2012,03,26,01,04,4.00
2012,03,26,01,05,4.00
2012,03,26,01,06,4.00
2012,03,26,01,07,4.00
2012,03,26,01,08,4.00
2012,03,26,01,09,4.00
2012,03,26,01,10,4.00
2012,03,26,01,11,4.00
2012,03,26,01,12,4.00
2012,03,26,01,13,4.00
2012,03,26,01,14,4.00
2012,03,26,01,15,3.90
2012,03,26,01,16,3.90
2012,03,26,01,17,3.90
2012,03,26,01,18,3.90
2012,03,26,01,19,3.90
2012,03,26,01,20,3.90
2012,03,26,01,21,3.80
2012,03,26,01,22,3.80
2012,03,26,01,23,3.80
2012,03,26,01,24,3.80
2012,03,26,01,25,3.80
2012,03,26,01,26,3.80
2012,03,26,01,27,3.80
2012,03,26,01,28,3.70
2012,03,26,01,29,3.70
2012,03,26,01,30,3.70
2012,03,26,01,31,3.70
2012,03,26,01,32,3.60
2012,03,26,01,33,3.60
2012,03,26,01,34,3.60
2012,03,26,01,35,3.60
2012,03,26,01,36,3.60
2012,03,26,01,37,3.60
2012,03,26,01,38,3.60
2012,03,26,01,39,3.60
2012,03,26,01,40,3.60
2012,03,26,01,41,3.50
2012,03,26,01,42,3.50
2012,03,26,01,43,3.50
2012,03,26,01,44,3.50
2012,03,26,01,45,3.40
2012,03,26,01,46,3.40
2012,03,26,01,47,3.40
2012,03,26,01,48,3.40
2012,03,26,01,49,3.40
2012,03,26,01,50,3.30
2012,03,26,01,51,3.30
2012,03,26,01,52,3.30
2012,03,26,01,53,3.30
2012,03,26,01,54,3.30
2012,03,26,01,55,3.30
2012,03,26,01,56,3.30
2012,03,26,01,57,3.30
2012,03,26,01,58,3.30
2012,03,26,01,59,3.20
2012,03,26,02,00,3.20
2012,03,26,02,01,3.20
2012,03,26,02,02,3.20
2012,03,26,02,03,3.20
2012,03,26,02,04,3.20
2012,03,26,02,05,3.20
2012,03,26,02,06,3.20
2012,03,26,02,07,3.10
2012,03,26,02,08,3.10
2012,03,26,02,09,3.10
2012,03,26,02,10,3.10
2012,03,26,02,11,3.20
2012,03,26,02,12,3.20
2012,03,26,02,13,3.20
2012,03,26,02,14,3.20
2012,03,26,02,15,3.20
2012,03,26,02,16,3.20
2012,03,26,02,17,3.20
2012,03,26,02,18,3.20
2012,03,26,02,19,3.30
2012,03,26,02,20,3.30
2012,03,26,02,21,3.30
2012,03,26,02,22,3.30
2012,03,26,02,23,3.30
2012,03,26,02,24,3.30
2012,03,26,02,25,3.30
2012,03,26,02,26,3.30
2012,03,26,02,27,3.40
2012,03,26,02,28,3.40
2012,03,26,02,29,3.40
2012,03,26,02,30,3.50
2012,03,26,02,31,3.50
2012,03,26,02,32,3.50
2012,03,26,02,33,3.50
2012,03,26,02,34,3.60
2012,03,26,02,35,3.60
2012,03,26,02,36,3.60
2012,03,26,02,37,3.70
2012,03,26,02,38,3.70
2012,03,26,02,39,3.70
2012,03,26,02,40,3.80
2012,03,26,02,41,3.80
2012,03,26,02,42,3.80
2012,03,26,02,43,3.80
2012,03,26,02,44,3.90
2012,03,26,02,45,3.90
2012,03,26,02,46,4.00
2012,03,26,02,47,4.00
2012,03,26,02,48,4.00
2012,03,26,02,49,4.00
2012,03,26,02,50,4.00
2012,03,26,02,51,4.00
2012,03,26,02,52,4.00
2012,03,26,02,53,4.00
2012,03,26,02,54,4.00
2012,03,26,02,55,4.00
2012,03,26,02,56,4.00
2012,03,26,02,57,4.00
2012,03,26,02,58,4.10
2012,03,26,02,59,4.10
2012,03,26,03,00,4.10
2012,03,26,03,01,4.10
2012,03,26,03,02,4.20
2012,03,26,03,03,4.20
2012,03,26,03,04,4.20
2012,03,26,03,05,4.20
2012,03,26,03,06,4.20
2012,03,26,03,07,4.30
2012,03,26,03,08,4.30
2012,03,26,03,09,4.30
2012,03,26,03,10,4.30
2012,03,26,03,11,4.30
2012,03,26,03,12,4.30
2012,03,26,03,13,4.30
2012,03,26,03,14,4.40
2012,03,26,03,15,4.40
2012,03,26,03,16,4.40
2012,03,26,03,17,4.40
2012,03,26,03,18,4.40
2012,03,26,03,19,4.40
2012,03,26,03,20,4.40
2012,03,26,03,21,4.40
2012,03,26,03,22,4.50
2012,03,26,03,23,4.50
2012,03,26,03,24,4.50
2012,03,26,03,25,4.50
2012,03,26,03,26,4.50
2012,03,26,03,27,4.60
2012,03,26,03,28,4.60
2012,03,26,03,29,4.60
2012,03,26,03,30,4.60
2012,03,26,03,31,4.70
2012,03,26,03,32,4.70
2012,03,26,03,33,4.80
2012,03,26,03,34,4.80
2012,03,26,03,35,4.80
2012,03,26,03,36,4.90
2012,03,26,03,37,4.90
2012,03,26,03,38,4.90
2012,03,26,03,39,4.90
2012,03,26,03,40,5.00
2012,03,26,03,41,5.00
2012,03,26,03,42,5.00
2012,03,26,03,43,4.90
2012,03,26,03,44,4.90
2012,03,26,03,45,4.90
2012,03,26,03,46,4.90
2012,03,26,03,47,4.90
2012,03,26,03,48,4.90
2012,03,26,03,49,4.90
2012,03,26,03,50,4.90
2012,03,26,03,51,4.90
2012,03,26,03,52,4.90
2012,03,26,03,53,4.90
2012,03,26,03,54,4.90
2012,03,26,03,55,4.90
2012,03,26,03,56,4.80
2012,03,26,03,57,4.80
2012,03,26,03,58,4.80
2012,03,26,03,59,4.80
2012,03,26,04,00,4.80
2012,03,26,04,01,4.80
2012,03,26,04,02,4.80
2012,03,26,04,03,4.80
2012,03,26,04,04,4.80
2012,03,26,04,05,4.80
2012,03,26,04,06,4.80
2012,03,26,04,07,4.80
2012,03,26,04,08,4.70
2012,03,26,04,09,4.70
2012,03,26,04,10,4.70
2012,03,26,04,11,4.70
2012,03,26,04,12,4.70
2012,03,26,04,13,4.70
2012,03,26,04,14,4.70
2012,03,26,04,15,4.70
2012,03,26,04,16,4.70
2012,03,26,04,17,4.60
2012,03,26,04,18,4.60
2012,03,26,04,19,4.60
2012,03,26,04,20,4.60
2012,03,26,04,21,4.60
2012,03,26,04,22,4.60
2012,03,26,04,23,4.60
2012,03,26,04,24,4.60
2012,03,26,04,25,4.60
2012,03,26,04,26,4.50
2012,03,26,04,27,4.50
2012,03,26,04,28,4.50
2012,03,26,04,29,4.50
2012,03,26,04,30,4.50
2012,03,26,04,31,4.50
2012,03,26,04,32,4.50
2012,03,26,04,33,4.40
2012,03,26,04,34,4.40
2012,03,26,04,35,4.40
2012,03,26,04,36,4.40
2012,03,26,04,37,4.40
2012,03,26,04,38,4.30
2012,03,26,04,39,4.30
2012,03,26,04,40,4.30
2012,03,26,04,41,4.30
2012,03,26,04,42,4.30
2012,03,26,04,43,4.30
2012,03,26,04,44,4.20
2012,03,26,04,45,4.20
2012,03,26,04,46,4.20
2012,03,26,04,47,4.20
2012,03,26,04,48,4.20
2012,03,26,04,49,4.20
2012,03,26,04,50,4.20
2012,03,26,04,51,4.20
2012,03,26,04,52,4.20
2012,03,26,04,53,4.20
2012,03,26,04,54,4.20
2012,03,26,04,55,4.10
2012,03,26,04,56,4.10
2012,03,26,04,57,4.10
2012,03,26,04,58,4.10
2012,03,26,04,59,4.10
2012,03,26,05,00,4.10
2012,03,26,05,01,4.10
2012,03,26,05,02,4.10
2012,03,26,05,03,4.10
2012,03,26,05,04,4.20
2012,03,26,05,05,4.20
2012,03,26,05,06,4.20
2012,03,26,05,07,4.20
2012,03,26,05,08,4.20
2012,03,26,05,09,4.20
2012,03,26,05,10,4.20
2012,03,26,05,11,4.30
2012,03,26,05,12,4.30
2012,03,26,05,13,4.30
2012,03,26,05,14,4.30
2012,03,26,05,15,4.30
2012,03,26,05,16,4.30
2012,03,26,05,17,4.30
2012,03,26,05,18,4.30
2012,03,26,05,19,4.30
2012,03,26,05,20,4.30
2012,03,26,05,21,4.30
2012,03,26,05,22,4.30
2012,03,26,05,23,4.30
2012,03,26,05,24,4.30
2012,03,26,05,25,4.30
2012,03,26,05,26,4.30
2012,03,26,05,27,4.30
2012,03,26,05,28,4.30
2012,03,26,05,29,4.30
2012,03,26,05,30,4.30
2012,03,26,05,31,4.30
2012,03,26,05,32,4.30
2012,03,26,05,33,4.20
2012,03,26,05,34,4.20
2012,03,26,05,35,4.20
2012,03,26,05,36,4.20
2012,03,26,05,37,4.20
2012,03,26,05,38,4.20
2012,03,26,05,39,4.10
2012,03,26,05,40,4.10
2012,03,26,05,41,4.10
2012,03,26,05,42,4.10
2012,03,26,05,43,4.10
2012,03,26,05,44,4.10
2012,03,26,05,45,4.00
2012,03,26,05,46,4.00
2012,03,26,05,47,4.00
2012,03,26,05,48,4.00
2012,03,26,05,49,4.00
2012,03,26,05,50,4.00
2012,03,26,05,51,3.90
2012,03,26,05,52,3.90
2012,03,26,05,53,3.90
2012,03,26,05,54,3.90
2012,03,26,05,55,3.90
2012,03,26,05,56,3.90
2012,03,26,05,57,3.90
2012,03,26,05,58,3.90
2012,03,26,05,59,4.00
2012,03,26,06,00,4.00
2012,03,26,06,01,4.00
2012,03,26,06,02,4.00
2012,03,26,06,03,4.00
2012,03,26,06,04,4.00
2012,03,26,06,05,4.00
2012,03,26,06,06,4.00
2012,03,26,06,07,4.00
2012,03,26,06,08,4.00
2012,03,26,06,09,4.00
2012,03,26,06,10,4.00
2012,03,26,06,11,4.00
2012,03,26,06,12,4.00
2012,03,26,06,13,3.90
2012,03,26,06,14,3.90
2012,03,26,06,15,3.90
2012,03,26,06,16,3.90
2012,03,26,06,17,3.90
2012,03,26,06,18,3.80
2012,03,26,06,19,3.80
2012,03,26,06,20,3.80
2012,03,26,06,21,3.80
2012,03,26,06,22,3.80
2012,03,26,06,23,3.90
2012,03,26,06,24,3.90
2012,03,26,06,25,3.80
2012,03,26,06,26,3.80
2012,03,26,06,27,3.80
2012,03,26,06,28,3.80
2012,03,26,06,29,3.80
2012,03,26,06,30,3.70
2012,03,26,06,31,3.70
2012,03,26,06,32,3.70
2012,03,26,06,33,3.70
2012,03,26,06,34,3.70
2012,03,26,06,35,3.70
2012,03,26,06,36,3.70
2012,03,26,06,37,3.60
2012,03,26,06,38,3.60
2012,03,26,06,39,3.60
2012,03,26,06,40,3.60
2012,03,26,06,41,3.50
2012,03,26,06,42,3.50
2012,03,26,06,43,3.50
2012,03,26,06,44,3.40
2012,03,26,06,45,3.40
2012,03,26,06,46,3.40
2012,03,26,06,47,3.40
2012,03,26,06,48,3.40
2012,03,26,06,49,3.40
2012,03,26,06,50,3.40
2012,03,26,06,51,3.40
2012,03,26,06,52,3.40
2012,03,26,06,53,3.40
2012,03,26,06,54,3.40
2012,03,26,06,55,3.40
2012,03,26,06,56,3.40
2012,03,26,06,57,3.40
2012,03,26,06,58,3.40
2012,03,26,06,59,3.40
2012,03,26,07,00,3.40
2012,03,26,07,01,3.40
2012,03,26,07,02,3.40
2012,03,26,07,03,3.40
2012,03,26,07,04,3.40
2012,03,26,07,05,3.40
